Location: *
(49.5667°N, 1.3667°W)
Time: 04:37:13
(UTC+00:00)

MetOp-A - Pass Details

Date: 20 September 2019
Orbit: 820 x 821 km, 98.6° (Epoch: 22 October)

Event Time Altitude Azimuth Distance (km) Brightness Sun altitude
Exits shadow 20:36:53 36° 183° (S) 1,281 4.9 -23.6°
Maximum altitude 20:39:06 71° 257° (WSW) 873 4.3 -23.9°
Drops below altitude 10° 20:44:29 10° 341° (NNW) 2,430 7.3 -24.6°
Sets 20:46:51 0° 344° (NNW) 3,367 8.1 -24.9°
